Weather History for Marion Regional, IL

Change the Weather History Date:

Friday, February 1, 2013

  Actual Average Record
Temperature  
Mean Temperature 20 °F -  
Max Temperature 28 °F 42 °F 64 °F (1989)
Min Temperature 12 °F 21 °F -5 °F (1979)
Degree Days  
Heating Degree Days 45    
Moisture  
Dew Point 8 °F    
Average Humidity 57    
Maximum Humidity 64    
Minimum Humidity 40    
Precipitation  
Precipitation 0.00 in - - ()
Sea Level Pressure  
Sea Level Pressure 30.40 in    
Wind  
Wind Speed 9 mph (WSW)    
Max Wind Speed 14 mph    
Max Gust Speed 22 mph    
Visibility 13 miles    
Events      
Averages and records for this station are not official NWS values.
T = Trace of Precipitation, MM = Missing Value Source: NWS Daily Summary

Daily Weather History Graph

Daily Weather History Graph

Search for Another Location

Airport:

Trip Planner

Search our weather history database for the weather conditions in past years. The results will help you decide how hot, cold, wet, or windy it might be!

Date:

Astronomy

Feb. 01, 2013 Rise Set
Actual Time 6:59 AM CST 5:20 PM CST
Civil Twilight 6:32 AM CST 5:47 PM CST
Nautical Twilight 6:00 AM CST 6:19 PM CST
Astronomical Twilight 5:29 AM CST 6:49 PM CST
Moon 11:19 PM CST (2/1) 9:40 AM CST (2/1)
Length of Visible Light 11h 15m
Length of Day
10h 20m
Waning Gibbous, 70% of the Moon is Illuminated
Feb 1
Waning Gibbous
Feb 3
Last Quarter
Feb 10
New
Feb 17
First Quarter
Feb 25
Full

Hourly Weather History & Observations

Time (CST) Temp. Windchill Dew Point Humidity Pressure Visibility Wind Dir Wind Speed Gust Speed Precip Events Conditions
12:15 AM 19.4 °F 9.5 °F 5.0 °F 54% 30.37 in 10.0 mi WNW 8.1 mph 17.3 mph N/A   Clear
12:35 AM 19.4 °F 8.6 °F 5.0 °F 54% 30.38 in 10.0 mi WNW 9.2 mph 16.1 mph N/A   Clear
12:55 AM 17.6 °F 5.7 °F 5.0 °F 58% 30.39 in 10.0 mi NW 10.4 mph 21.9 mph N/A   Clear
1:15 AM 17.6 °F 3.7 °F 5.0 °F 58% 30.39 in 10.0 mi NW 13.8 mph 19.6 mph N/A   Clear
1:35 AM 17.6 °F 7.3 °F 5.0 °F 58% 30.40 in 10.0 mi NW 8.1 mph - N/A   Clear
1:55 AM 17.6 °F 5.0 °F 5.0 °F 58% 30.40 in 10.0 mi NW 11.5 mph 18.4 mph N/A   Scattered Clouds
2:15 AM 17.6 °F 6.4 °F 5.0 °F 58% 30.41 in 10.0 mi WNW 9.2 mph 17.3 mph N/A   Scattered Clouds
2:35 AM 17.6 °F 5.7 °F 5.0 °F 58% 30.41 in 10.0 mi NW 10.4 mph 16.1 mph N/A   Scattered Clouds
2:55 AM 15.8 °F 5.1 °F 5.0 °F 62% 30.41 in 10.0 mi NW 8.1 mph - N/A   Clear
3:15 AM 15.8 °F 6.1 °F 3.2 °F 58% 30.42 in 10.0 mi NW 6.9 mph - N/A   Clear
3:35 AM 15.8 °F 5.1 °F 3.2 °F 58% 30.42 in 10.0 mi WNW 8.1 mph - N/A   Clear
3:55 AM 14.0 °F 2.0 °F 3.2 °F 62% 30.41 in 10.0 mi NW 9.2 mph 16.1 mph N/A   Clear
4:15 AM 14.0 °F 5.1 °F 3.2 °F 62% 30.42 in 10.0 mi WNW 5.8 mph - N/A   Clear
4:35 AM 14.0 °F 5.1 °F 1.4 °F 57% 30.43 in 10.0 mi NW 5.8 mph - N/A   Clear
4:55 AM 14.0 °F 3.9 °F 1.4 °F 57% 30.44 in 10.0 mi NW 6.9 mph - N/A   Clear
5:15 AM 14.0 °F 5.1 °F 1.4 °F 57% 30.44 in 10.0 mi NW 5.8 mph - N/A   Clear
5:35 AM 14.0 °F 5.1 °F 1.4 °F 57% 30.45 in 10.0 mi NW 5.8 mph - N/A   Clear
6:55 AM 12.2 °F -1.8 °F 1.4 °F 62% 30.48 in 20.0 mi WNW 11.5 mph - N/A   Clear
7:55 AM 14.0 °F 0.5 °F 3.2 °F 62% 30.50 in 20.0 mi WNW 11.5 mph - N/A   Clear
8:55 AM 15.8 °F 2.7 °F 3.2 °F 58% 30.52 in 20.0 mi West 11.5 mph - N/A   Clear
9:55 AM 17.6 °F 6.4 °F 3.2 °F 53% 30.54 in 20.0 mi West 9.2 mph - N/A   Clear
10:55 AM 19.4 °F 7.2 °F 3.2 °F 49% 30.53 in 20.0 mi WNW 11.5 mph - N/A   Clear
11:55 AM 21.2 °F 9.5 °F 6.8 °F 54% 30.50 in 20.0 mi SW 11.5 mph - N/A   Clear
12:55 PM 21.2 °F 14.9 °F 8.6 °F 58% 30.47 in 20.0 mi SW 4.6 mph - N/A   Clear
1:55 PM 24.8 °F 16.9 °F 8.6 °F 50% 30.44 in 20.0 mi WSW 6.9 mph - N/A   Clear
2:55 PM 26.6 °F 20.0 °F 8.6 °F 47% 30.43 in 20.0 mi SSW 5.8 mph - N/A   Clear
3:55 PM 28.4 °F 22.2 °F 6.8 °F 40% 30.41 in 20.0 mi SW 5.8 mph - N/A   Clear
4:55 PM 26.6 °F 18.2 °F 10.4 °F 51% 30.39 in 20.0 mi SSW 8.1 mph - N/A   Scattered Clouds
5:55 PM 26.6 °F 18.2 °F 8.6 °F 47% 30.39 in 20.0 mi SSW 8.1 mph - N/A   Scattered Clouds
6:55 PM 26.6 °F 20.0 °F 12.2 °F 55% 30.38 in 10.0 mi SSE 5.8 mph - N/A   Mostly Cloudy
7:15 PM 26.6 °F 18.2 °F 12.2 °F 55% 30.37 in 10.0 mi South 8.1 mph - N/A   Overcast
7:35 PM 26.6 °F 18.2 °F 12.2 °F 55% 30.38 in 10.0 mi South 8.1 mph - N/A   Overcast
7:55 PM 26.6 °F 17.5 °F 12.2 °F 55% 30.37 in 10.0 mi South 9.2 mph - N/A   Mostly Cloudy
8:15 PM 26.6 °F 18.2 °F 12.2 °F 55% 30.37 in 10.0 mi South 8.1 mph - N/A   Scattered Clouds
8:35 PM 26.6 °F 19.1 °F 12.2 °F 55% 30.36 in 10.0 mi SSE 6.9 mph - N/A   Mostly Cloudy
8:55 PM 26.6 °F 18.2 °F 12.2 °F 55% 30.36 in 10.0 mi South 8.1 mph - N/A   Mostly Cloudy
9:15 PM 26.6 °F 17.5 °F 14.0 °F 59% 30.35 in 10.0 mi South 9.2 mph - N/A   Clear
9:35 PM 26.6 °F 17.5 °F 14.0 °F 59% 30.34 in 10.0 mi South 9.2 mph - N/A   Scattered Clouds
9:55 PM 26.6 °F 18.2 °F 14.0 °F 59% 30.33 in 10.0 mi SSE 8.1 mph - N/A   Mostly Cloudy
10:15 PM 26.6 °F 17.5 °F 14.0 °F 59% 30.33 in 10.0 mi South 9.2 mph - N/A   Overcast
10:35 PM 26.6 °F 18.2 °F 14.0 °F 59% 30.34 in 10.0 mi SSW 8.1 mph - N/A   Overcast
10:55 PM 28.4 °F 20.4 °F 15.8 °F 59% 30.34 in 10.0 mi SSW 8.1 mph - N/A   Overcast
11:15 PM 28.4 °F 20.4 °F 15.8 °F 59% 30.33 in 10.0 mi South 8.1 mph - N/A   Overcast
11:35 PM 28.4 °F 20.4 °F 17.6 °F 64% 30.32 in 10.0 mi South 8.1 mph - N/A   Overcast
11:55 PM 28.4 °F 20.4 °F 17.6 °F 64% 30.32 in 10.0 mi South 8.1 mph - N/A   Overcast